Terminal Aerodrome Forecast
Issued by NWS Tuscon, AZ

Home | Current Version | Previous Version | Text Only | Print | Product List | Glossary On
Versions: 1 2 3 4 5 6 7 8 9 10 11 12 13 14 15 16
000
FTUS45 KTWC 160100 AAA
TAFDUG
TAF AMD
KDUG 160156Z 1602/1624 15012KT P6SM SCT070 OVC200
     FM160500 14007KT P6SM -SHRA SCT060 BKN100
     FM160900 11006KT P6SM -SHRA BKN050 OVC090
     FM161700 12013KT P6SM SHRA BKN045 BKN080=

USA.gov is the U.S. government's official web portal to all federal, state and local government web resources and services.